Theta_e
328 326 324 326 331 330 333 332 330 328 327 324 327 333 334 321 328 329 309 310 314 319 322 327 327 327 327 328 327 327 325 326 328 328 329 330 329 328 326 325 324 327 330 330 330 330 327 328 325
327 326 324 327 332 336 334 332 328 328 324 323 325 327 330 324 311 308 308 310 313 317 318 324 327 327 327 327 326 325 315 311 311 311 312 312 312 312 311 311 311 312 314 316 319 321 321 321 324
325 325 326 328 332 334 334 332 330 323 320 323 323 317 321 316 309 308 307 310 312 315 317 322 326 327 326 326 325 320 310 309 309 309 309 308 307 305 305 305 305 305 304 305 306 307 309 314 320
320 325 327 331 333 332 332 332 325 322 319 320 322 322 310 306 308 306 307 309 311 313 316 320 325 326 326 325 323 315 309 308 307 305 305 305 306 306 306 306 305 304 303 303 303 303 304 309 318
321 327 332 334 333 331 330 327 323 323 323 321 320 321 312 305 305 306 308 308 310 311 314 318 324 325 324 320 313 308 307 306 305 306 307 308 308 308 307 306 305 304 303 302 302 302 303 307 318
324 327 332 335 334 333 329 324 324 324 323 319 318 318 311 305 305 304 306 306 308 311 314 315 315 318 318 311 307 306 305 306 308 309 308 306 304 306 306 304 303 302 302 301 301 301 303 310 314
324 330 331 332 332 332 329 321 323 324 321 319 317 320 309 305 305 304 304 304 305 309 309 309 309 310 310 307 305 306 311 316 317 316 315 312 308 306 304 302 301 301 300 300 300 301 302 304 310
323 328 331 332 332 332 325 319 315 321 321 312 314 320 314 306 304 304 303 303 304 307 307 306 305 304 304 305 307 312 312 312 312 309 306 302 301 300 299 299 299 299 299 299 299 300 301 304 309
322 329 331 330 331 329 317 319 311 311 312 311 309 310 308 305 304 304 303 303 303 304 305 304 303 303 305 308 311 315 314 309 305 302 300 300 299 298 298 298 298 298 298 298 299 300 302 306 311
323 329 330 326 327 326 318 316 316 312 313 311 307 307 306 305 303 303 304 303 302 303 303 302 302 304 307 312 313 310 306 304 301 299 298 298 298 298 298 298 298 297 297 298 299 300 304 307 311
323 327 327 323 317 313 316 313 313 313 318 316 312 306 304 303 303 304 305 304 303 302 302 302 303 307 311 311 307 304 301 299 298 297 297 297 297 297 297 297 297 297 298 299 299 301 303 307 312
319 321 322 319 313 313 313 312 312 311 316 313 312 309 304 304 304 305 305 303 302 302 302 303 306 309 309 305 301 299 298 297 297 297 297 297 297 296 296 296 296 297 298 299 300 301 303 307 311
316 317 315 314 311 311 310 312 313 314 312 310 309 306 304 305 305 305 304 302 301 301 303 306 309 309 306 302 299 298 297 296 296 296 296 296 296 296 296 296 296 297 298 299 300 301 302 304 308
312 313 313 310 312 310 312 314 310 317 318 307 306 305 305 305 305 304 303 301 301 301 305 308 308 306 303 300 297 296 296 295 295 296 296 296 296 295 295 295 296 297 297 298 298 299 300 301 303
308 310 310 309 308 310 307 315 312 313 311 308 306 306 305 305 304 303 302 301 301 302 306 307 306 304 301 298 296 295 295 295 295 295 295 295 295 295 295 295 295 296 297 297 297 298 298 298 298
309 309 310 310 306 308 311 315 317 315 307 309 308 307 305 304 303 302 301 301 300 302 306 306 305 302 299 297 295 295 295 295 295 295 295 295 295 295 294 294 295 296 296 296 296 295 294 294 293
311 312 312 311 305 307 309 312 312 306 307 309 309 307 305 304 303 301 301 300 300 302 303 305 302 299 297 296 295 294 294 294 295 294 294 294 294 294 294 294 295 295 296 296 295 294 293 292 292
312 313 312 312 308 304 307 308 310 303 305 307 310 308 306 304 302 301 300 299 300 301 302 303 300 298 296 295 294 294 294 294 294 294 294 294 294 294 294 294 294 295 295 295 295 294 293 293 293
310 310 312 311 305 305 307 308 309 309 304 305 307 308 306 304 303 301 299 299 299 299 301 302 299 297 295 294 293 293 294 294 293 293 293 294 294 294 294 294 294 295 295 295 295 294 294 294 294
308 308 308 308 303 301 305 306 307 307 307 305 305 306 306 304 303 300 299 299 299 300 301 300 299 297 295 293 293 293 293 293 293 293 293 293 293 293 293 293 294 294 295 295 294 294 294 293 293
306 306 307 307 306 302 303 305 306 306 306 305 305 305 305 304 302 301 299 300 300 299 302 300 299 297 294 293 293 293 293 293 293 293 293 293 293 293 293 293 293 294 294 294 294 293 292 292 292
304 305 305 305 305 304 303 304 307 309 308 305 304 303 304 304 303 301 300 299 300 301 301 299 299 296 294 293 293 293 293 293 292 292 293 292 292 292 293 293 293 293 293 293 293 292 292 291 291
303 300 302 304 304 304 304 303 305 307 306 307 304 302 302 303 303 301 300 301 301 301 301 299 298 295 294 293 292 292 292 292 292 292 292 292 292 292 292 292 292 292 292 292 292 292 291 291 291
299 300 300 301 302 303 303 304 306 308 308 306 307 305 301 302 303 302 300 299 299 300 299 298 297 295 294 293 292 291 292 292 292 292 292 292 291 291 291 292 292 292 291 291 291 291 291 291 290
299 301 304 305 304 306 302 305 306 307 307 304 304 305 303 301 302 301 300 299 298 299 298 298 297 295 294 293 291 291 291 291 291 292 291 291 291 291 291 291 291 291 291 291 290 290 290 290 290
299 301 306 308 308 307 298 301 305 306 305 303 301 300 301 301 301 301 300 298 298 299 298 298 296 295 294 293 291 291 291 291 290 290 290 290 290 290 290 290 290 290 290 290 290 290 290 290 289
299 299 300 305 298 301 303 305 305 305 305 304 303 300 298 299 299 301 300 297 297 298 298 298 296 295 294 293 291 291 290 290 290 290 290 289 289 290 290 290 290 290 289 290 290 290 290 289 289
296 296 299 300 305 305 305 306 306 307 306 305 304 303 301 299 298 298 300 297 297 297 298 297 296 295 295 294 292 291 290 290 290 290 290 289 289 290 290 289 289 289 289 289 289 289 289 288 288
294 297 297 299 303 305 304 306 309 307 304 302 302 300 300 300 298 297 298 297 296 296 297 297 296 295 294 294 293 292 291 290 290 290 290 289 289 289 289 289 289 289 289 288 288 288 288 288 287
292 298 299 302 304 301 302 304 305 306 302 299 299 299 298 298 298 297 297 296 296 295 296 296 296 295 295 294 293 292 290 290 290 290 290 289 289 289 288 288 288 288 288 288 288 287 287 287 287
Wind_Speed
5 5 3 4 7 7 15 18 5 4 5 1 2 1 2 7 4 1 8 11 15 15 14 19 18 13 11 8 7 7 5 5 7 7 8 8 8 8 6 6 6 8 10 11 11 8 8 7 7
6 3 4 9 8 11 12 18 9 9 5 7 5 2 3 4 5 9 8 13 12 13 10 14 17 14 11 9 8 7 5 2 2 2 3 4 6 7 8 8 8 9 11 13 16 15 15 12 11
4 4 8 4 12 14 12 6 9 8 9 7 4 2 2 4 7 11 9 14 13 14 10 14 18 14 12 10 8 7 5 3 2 2 4 6 7 8 10 10 10 10 10 13 14 15 14 12 9
2 4 7 9 16 14 18 5 4 10 5 6 3 5 4 4 8 7 14 14 13 12 11 14 17 14 12 11 8 6 5 4 2 1 2 4 7 8 9 11 12 12 11 11 11 11 11 9 9
5 6 8 13 18 18 3 5 6 10 8 9 9 6 3 4 9 13 14 14 13 12 11 13 14 14 11 9 6 4 4 3 2 1 1 3 6 8 9 10 11 11 10 9 8 7 7 4 5
7 6 8 13 18 15 2 6 10 11 7 7 7 8 5 9 12 12 13 13 12 13 12 10 13 12 10 7 5 3 3 2 0 2 4 6 5 6 8 9 10 10 9 8 6 5 2 2 5
11 8 14 18 16 10 9 5 11 11 9 10 1 7 5 13 13 13 13 13 13 13 12 11 10 10 9 7 6 5 5 4 4 4 5 5 4 7 8 7 6 8 6 5 4 1 2 2 1
9 8 16 15 12 14 2 7 5 9 8 7 5 5 5 18 17 15 13 13 12 13 12 11 9 9 9 9 8 6 4 3 3 3 2 2 2 4 5 5 4 4 3 3 4 3 4 4 5
5 8 12 15 10 8 1 9 2 4 2 5 5 1 4 23 20 17 15 14 13 13 13 12 11 10 9 8 7 5 4 3 2 0 1 2 3 5 6 6 6 7 7 7 7 7 7 8 10
10 11 16 7 9 8 8 10 2 4 10 9 6 8 13 20 21 19 17 16 14 14 13 12 12 11 9 8 6 5 3 2 1 2 3 3 5 7 7 7 7 10 10 10 9 9 10 10 11
8 14 9 2 1 3 5 9 7 8 11 15 14 15 19 21 21 19 18 16 15 15 15 15 14 12 10 8 6 5 5 5 4 4 4 5 6 7 7 8 9 10 10 10 11 10 10 11 13
9 13 8 2 3 3 6 4 5 12 13 6 8 19 21 23 23 21 20 18 18 17 17 17 14 12 10 8 7 7 7 6 5 4 4 5 5 6 7 8 8 9 11 11 12 12 13 14 16
13 13 6 6 5 7 7 7 10 10 12 14 6 17 21 22 21 20 19 19 19 18 19 17 15 13 11 9 9 8 7 6 6 5 4 5 5 6 7 7 9 10 11 12 12 13 13 14 14
3 7 7 6 7 6 7 4 5 13 19 15 13 16 20 22 23 21 21 21 21 20 20 18 15 13 12 11 10 9 8 7 6 5 5 5 6 7 8 9 10 11 12 12 12 12 12 13 12
3 8 6 11 7 4 6 9 17 23 19 17 18 19 21 23 24 24 23 22 22 22 21 18 16 14 13 13 12 11 9 8 7 6 6 6 7 8 10 10 11 12 13 13 13 12 13 13 13
5 5 11 2 9 5 10 20 14 25 20 22 22 22 23 26 26 24 23 22 23 23 22 20 18 16 16 15 14 12 10 9 8 8 7 7 7 9 10 11 12 13 13 13 13 13 13 14 13
10 13 14 8 14 6 13 16 3 8 16 20 21 22 24 25 26 26 25 25 26 25 23 22 20 19 18 17 16 14 12 11 10 9 9 9 9 9 11 12 13 14 14 13 13 13 12 13 13
14 16 14 14 7 10 12 21 14 11 15 20 21 23 25 27 30 28 26 26 26 26 25 23 22 22 20 19 17 16 14 13 12 11 10 10 10 11 12 13 13 14 13 13 13 13 13 12 12
19 15 17 12 4 6 17 21 20 21 18 20 25 26 28 29 27 27 28 29 30 28 28 27 26 24 23 21 19 18 17 15 13 12 11 11 11 11 12 13 13 14 14 13 12 12 11 11 11
16 19 20 18 5 5 16 24 22 21 24 29 29 28 31 28 29 32 34 36 35 33 31 29 28 26 25 23 22 19 18 16 15 14 13 12 12 12 12 12 13 12 12 12 12 10 8 7 6
16 18 18 17 5 13 15 23 23 22 31 33 32 33 31 35 37 38 42 42 38 37 35 33 30 28 27 26 25 22 20 18 17 16 15 14 14 14 13 13 13 13 12 11 10 9 7 4 5
15 9 12 15 7 8 4 13 16 14 11 15 28 31 36 39 40 41 45 44 44 41 36 34 32 30 29 29 26 23 21 20 18 18 17 16 16 16 15 14 13 12 11 11 10 8 8 6 4
2 3 5 10 12 13 16 8 7 12 16 18 20 32 37 37 39 41 47 46 43 41 40 37 34 33 32 30 28 25 23 21 20 20 19 18 17 17 16 15 14 13 12 11 10 9 8 7 6
3 2 2 4 6 8 15 15 19 15 14 15 15 25 32 34 35 36 37 40 42 41 41 39 37 35 35 33 31 29 26 25 23 22 21 20 19 18 17 15 14 14 13 12 11 10 9 8 7
7 6 3 4 5 8 1 11 19 11 18 9 11 14 16 27 33 36 39 42 43 44 44 42 40 39 37 36 34 31 28 25 23 23 22 22 21 20 19 17 16 16 14 13 11 10 9 8 7
13 7 5 7 8 10 3 8 6 8 16 15 14 12 12 19 31 36 40 45 46 47 46 44 43 40 40 38 36 33 30 28 25 24 24 23 22 21 20 19 18 16 14 13 12 10 8 7 7
7 7 3 5 2 5 9 16 8 14 15 12 14 8 12 14 23 31 33 39 44 48 46 46 44 41 40 39 37 36 33 30 28 25 24 23 21 21 20 19 17 16 14 13 12 11 10 9 7
2 3 3 4 5 8 9 8 10 12 13 6 8 8 13 15 20 29 33 37 41 45 46 44 43 43 40 39 38 36 34 31 29 27 25 24 23 21 20 19 18 16 15 14 13 11 10 10 9
5 5 5 3 5 5 8 6 3 5 6 9 11 15 16 12 16 23 29 32 35 42 44 45 44 42 40 38 37 36 35 33 31 28 26 26 24 23 21 20 19 17 16 15 14 13 12 11 10
3 6 10 5 6 6 6 11 10 12 4 4 8 7 12 7 8 16 24 30 34 39 43 46 44 42 39 37 38 37 35 34 33 32 28 28 26 24 23 21 20 19 17 16 15 14 13 12 12
Wind_Direction
264 287 276 250 239 229 245 239 245 206 219 109 34 281 77 49 357 352 155 166 168 173 184 195 199 206 215 224 247 264 265 252 257 265 268 271 276 283 280 275 272 256 259 262 267 280 286 260 256
244 254 249 252 243 238 239 235 190 220 88 136 129 131 174 89 69 127 135 157 154 164 161 192 201 203 212 221 241 256 250 255 271 291 298 302 303 305 301 295 287 278 273 272 275 280 284 282 278
236 218 251 232 241 244 260 342 227 110 149 171 143 61 46 107 121 139 159 157 154 164 172 191 202 202 214 227 236 242 234 229 248 296 321 319 321 320 317 311 306 297 289 285 286 286 284 281 282
224 216 252 244 248 242 262 171 112 156 165 188 195 157 98 117 153 164 152 150 151 155 179 195 200 202 217 226 238 238 237 241 247 276 2 349 340 337 332 327 321 314 309 303 300 297 288 282 274
211 241 239 245 245 258 267 314 198 193 166 180 187 153 127 159 149 155 156 154 155 154 175 194 194 204 213 224 231 235 248 253 259 322 36 40 1 346 342 337 330 323 317 317 314 312 309 283 267
229 224 239 238 253 248 197 243 210 208 180 159 190 154 136 170 155 158 159 159 161 173 183 185 194 199 210 224 230 219 205 191 130 23 9 1 10 360 344 339 335 330 330 331 337 339 347 191 240
254 224 244 264 271 276 221 209 225 220 198 201 219 184 148 172 169 165 159 164 168 180 188 191 193 198 205 206 202 192 194 221 255 279 297 306 339 344 337 336 337 330 338 347 5 359 232 322 2
253 274 256 250 267 266 69 184 307 242 200 179 190 193 181 184 175 167 164 165 172 182 189 193 190 188 192 194 199 210 222 246 287 296 318 353 38 23 15 10 23 31 16 55 83 51 67 79 90
231 249 250 255 279 272 77 218 199 237 187 185 196 229 162 173 172 168 168 170 176 182 188 190 188 189 192 191 192 206 240 260 255 270 49 53 59 66 61 55 46 61 64 66 77 84 88 93 95
216 241 254 314 217 243 221 238 248 239 207 216 205 213 157 180 173 174 176 179 180 183 188 191 193 194 195 202 212 209 205 200 178 134 102 86 86 80 72 66 60 66 74 76 86 95 101 101 113
222 244 281 197 167 301 239 246 188 231 239 233 220 186 177 175 178 182 182 185 181 185 190 194 196 197 201 204 206 195 177 161 153 131 121 100 85 82 81 82 78 82 82 89 92 97 101 107 111
244 247 255 217 190 120 283 277 231 225 253 249 205 203 188 184 185 185 183 184 180 184 191 195 198 200 203 201 194 181 169 163 143 131 117 103 100 95 96 96 100 100 97 97 98 101 103 107 115
245 251 222 215 215 212 224 235 270 241 256 252 217 193 189 190 190 188 187 186 187 189 194 198 200 203 203 200 193 185 174 165 156 150 131 122 118 112 111 114 113 111 107 105 105 105 108 113 121
358 253 255 241 219 238 238 232 262 257 229 236 204 196 197 198 193 189 191 190 191 195 197 202 204 206 202 199 194 187 180 172 165 156 144 138 135 130 128 125 124 122 118 117 116 116 116 118 122
263 263 236 230 211 237 240 247 226 245 213 215 211 199 200 203 198 197 195 192 194 200 202 205 207 206 202 198 195 191 184 180 171 164 158 149 143 137 134 132 129 125 120 117 116 115 115 117 120
236 248 255 151 173 200 202 258 249 219 198 213 209 204 201 203 203 200 198 196 198 202 204 209 209 205 201 199 197 193 187 184 178 170 163 154 148 142 138 135 134 131 125 120 119 119 120 120 121
214 258 229 251 204 179 197 263 196 184 213 224 215 211 204 202 203 202 200 198 203 206 208 211 208 204 202 198 197 194 189 186 181 176 166 161 154 150 146 143 142 138 131 127 126 126 125 125 121
239 234 260 251 182 218 225 249 253 208 223 233 224 217 212 208 206 201 200 201 204 208 210 211 207 205 201 198 196 193 190 187 183 178 172 164 158 154 150 148 146 138 133 133 134 134 132 127 123
274 278 267 273 117 255 241 254 258 249 216 229 229 222 218 215 208 204 204 205 207 207 209 209 207 205 202 198 195 193 191 188 184 177 171 166 162 158 152 151 148 145 143 141 137 135 132 133 126
254 256 261 270 167 222 275 270 265 257 243 229 230 224 220 215 208 205 208 210 210 209 209 208 207 207 202 199 194 193 192 187 185 178 174 169 163 158 153 151 150 148 146 146 144 143 145 151 151
242 250 259 264 277 238 276 275 258 249 238 238 230 231 223 213 205 202 210 211 210 210 210 209 208 207 203 200 198 195 193 191 186 181 178 172 167 162 159 155 156 155 155 155 155 155 151 167 179
253 258 257 264 256 263 169 290 285 293 237 227 228 226 223 213 209 205 210 207 210 211 210 210 209 207 204 203 200 198 197 193 190 188 183 178 176 169 166 164 164 164 167 167 164 163 160 154 150
270 12 250 262 258 276 255 263 284 258 256 239 228 227 223 217 208 202 212 213 211 209 210 209 209 207 206 204 201 197 196 195 196 193 187 184 182 176 174 172 171 172 173 171 170 171 174 179 179
104 139 193 234 258 253 242 239 276 256 254 248 250 235 225 217 210 207 210 207 208 210 209 209 208 207 206 204 202 199 198 201 199 195 192 190 188 184 182 182 181 180 179 177 176 179 180 184 190
200 189 227 235 211 251 321 243 246 299 292 257 265 274 227 217 208 203 199 200 203 207 207 208 208 207 206 204 203 201 201 203 203 201 199 197 194 192 190 190 188 188 187 185 187 189 191 197 205
193 218 237 255 246 283 115 240 254 251 285 277 276 267 253 216 210 206 201 202 204 208 208 207 207 207 206 205 204 204 204 204 204 204 204 202 200 198 196 195 195 193 192 194 197 201 206 213 223
161 215 14 311 152 270 247 253 256 249 262 276 274 275 257 238 216 210 205 201 202 209 209 208 207 207 208 207 206 206 206 206 205 207 207 205 204 205 203 203 202 199 200 202 206 209 216 225 236
280 344 169 211 248 252 248 261 255 279 278 21 15 313 268 240 219 209 204 201 205 212 210 209 210 209 209 209 209 210 210 210 209 211 211 211 212 212 210 209 208 208 209 212 216 220 225 232 242
172 211 221 290 251 263 284 266 11 344 35 344 338 327 326 278 238 212 203 201 200 210 209 208 209 208 209 210 210 212 213 212 213 214 214 216 217 215 214 214 214 215 217 219 223 228 233 241 250
338 236 193 224 210 239 287 258 290 291 321 294 299 320 351 328 254 219 204 196 196 206 208 207 207 208 210 210 210 211 212 213 213 215 216 217 218 218 218 218 218 220 222 225 229 234 241 248 257